Volver al catálogo

DELTA 1 DEB

ActivoPO
NORAD 7959·DEBRIS·🇺🇸 United States

Lanzado Jul 23, 1972 desde Vandenberg Space Force Base

Loading…

Próximos Pases (próximas 24 horas)

TLE

ActualizadoSource: Space-Track

Época: Sep 14, 2026, 14:15 UTC

1 07959U 72058CP  26257.59382494  .00000336  00000-0  13728-3 0  9994
2 07959  98.0252 183.1806 0235638 128.5380 233.7178 14.18616400760868

Sigue DELTA 1 DEB en tiempo real con AllMySat

Download on the App Store